TimeEDT,TemperatureF,Dew PointF,Humidity,Sea Level PressureIn,VisibilityMPH,Wind Direction,Wind SpeedMPH,Gust SpeedMPH,PrecipitationIn,Events,Conditions,WindDirDegrees,DateUTC
12:15 AM,66.2,66.2,100,30.12,3.0,Calm,Calm,-,N/A,,Overcast,0,2012-10-04 04:15:00
12:35 AM,66.2,66.2,100,30.13,3.0,Calm,Calm,-,N/A,,Overcast,0,2012-10-04 04:35:00
12:55 AM,64.4,64.4,100,30.12,0.2,Calm,Calm,-,N/A,Fog,Fog,0,2012-10-04 04:55:00
1:15 AM,64.4,64.4,100,30.13,0.2,Calm,Calm,-,N/A,Fog,Fog,0,2012-10-04 05:15:00
1:35 AM,64.4,64.4,100,30.13,0.2,Calm,Calm,-,N/A,Fog,Fog,0,2012-10-04 05:35:00
1:55 AM,64.4,64.4,100,30.13,0.2,Calm,Calm,-,N/A,Fog,Fog,0,2012-10-04 05:55:00
2:15 AM,62.6,62.6,100,30.13,0.5,Calm,Calm,-,N/A,Fog,Fog,0,2012-10-04 06:15:00
2:35 AM,62.6,62.6,100,30.13,0.2,Calm,Calm,-,N/A,Fog,Fog,0,2012-10-04 06:35:00
2:55 AM,62.6,62.6,100,30.13,0.8,Calm,Calm,-,N/A,,Overcast,0,2012-10-04 06:55:00
3:15 AM,62.6,62.6,100,30.12,0.5,Calm,Calm,-,N/A,Fog,Fog,0,2012-10-04 07:15:00
3:35 AM,62.6,62.6,100,30.12,0.5,Calm,Calm,-,N/A,Fog,Fog,0,2012-10-04 07:35:00
3:55 AM,62.6,62.6,100,30.13,0.2,Calm,Calm,-,N/A,Fog,Fog,0,2012-10-04 07:55:00
4:15 AM,62.6,62.6,100,30.12,0.2,Calm,Calm,-,N/A,Fog,Fog,0,2012-10-04 08:15:00
4:35 AM,62.6,62.6,100,30.12,0.8,Calm,Calm,-,N/A,,Overcast,0,2012-10-04 08:35:00
4:55 AM,62.6,62.6,100,30.12,0.5,Calm,Calm,-,N/A,Fog,Fog,0,2012-10-04 08:55:00
5:15 AM,62.6,62.6,100,30.12,0.2,Calm,Calm,-,N/A,Fog,Fog,0,2012-10-04 09:15:00
5:35 AM,62.6,62.6,100,30.12,0.2,Calm,Calm,-,N/A,Fog,Fog,0,2012-10-04 09:35:00
5:55 AM,62.6,62.6,100,30.12,0.5,Calm,Calm,-,N/A,Fog,Fog,0,2012-10-04 09:55:00
6:15 AM,62.6,62.6,100,30.13,0.2,Calm,Calm,-,N/A,Fog,Fog,0,2012-10-04 10:15:00
6:35 AM,62.6,62.6,100,30.14,0.5,Calm,Calm,-,N/A,Fog,Fog,0,2012-10-04 10:35:00
6:45 AM,64.4,62.6,94,30.14,0.5,Calm,Calm,-,N/A,Fog,Patches of Fog,0,2012-10-04 10:45:00
7:10 AM,62.6,62.6,100,30.14,2.2,Calm,Calm,-,N/A,Fog,Overcast,0,2012-10-04 11:10:00
7:50 AM,64.4,64.4,100,30.13,3.0,Calm,Calm,-,N/A,,Overcast,0,2012-10-04 11:50:00
8:45 AM,66.2,66.2,100,30.13,4.0,Calm,Calm,-,N/A,,Overcast,0,2012-10-04 12:45:00
9:45 AM,66.2,66.2,100,30.14,3.0,Calm,Calm,-,N/A,,Overcast,0,2012-10-04 13:45:00
10:45 AM,69.8,68.0,94,30.13,4.0,Calm,Calm,-,N/A,,Overcast,0,2012-10-04 14:45:00
11:45 AM,69.8,68.0,94,30.11,4.0,Calm,Calm,-,N/A,,Overcast,0,2012-10-04 15:45:00
12:25 PM,71.6,68.0,88,30.12,4.0,WNW,4.6,-,N/A,,Overcast,300,2012-10-04 16:25:00
12:45 PM,73.4,68.0,83,30.11,3.0,West,3.5,-,N/A,,Overcast,270,2012-10-04 16:45:00
1:45 PM,73.4,68.0,83,30.09,3.0,Calm,Calm,-,N/A,,Overcast,0,2012-10-04 17:45:00
2:22 PM,73.4,68.0,83,30.07,4.0,SE,3.5,-,N/A,,Haze,130,2012-10-04 18:22:00
2:45 PM,73.4,68.0,83,30.07,4.0,Calm,Calm,-,N/A,,Haze,0,2012-10-04 18:45:00
3:45 PM,75.2,68.0,78,30.06,3.0,SSW,6.9,-,N/A,,Haze,200,2012-10-04 19:45:00
4:45 PM,73.4,68.0,83,30.06,3.0,WSW,4.6,-,N/A,,Haze,250,2012-10-04 20:45:00
5:00 PM,73.4,68.0,83,30.06,2.0,West,5.8,-,N/A,Rain,Light Rain,270,2012-10-04 21:00:00
5:30 PM,73.4,68.0,83,30.05,7.0,West,5.8,-,N/A,,Mostly Cloudy,270,2012-10-04 21:30:00
5:45 PM,73.4,68.0,83,30.04,7.0,West,5.8,-,N/A,,Mostly Cloudy,260,2012-10-04 21:45:00
6:45 PM,69.8,68.0,94,30.05,7.0,Calm,Calm,-,N/A,,Mostly Cloudy,0,2012-10-04 22:45:00
7:45 PM,68.0,66.2,94,30.06,7.0,Calm,Calm,-,N/A,,Mostly Cloudy,0,2012-10-04 23:45:00
8:45 PM,66.2,64.4,94,30.07,7.0,Calm,Calm,-,N/A,,Mostly Cloudy,0,2012-10-05 00:45:00
9:45 PM,64.4,62.6,94,30.07,6.0,Calm,Calm,-,N/A,,Overcast,0,2012-10-05 01:45:00
10:55 PM,59.0,59.0,100,30.08,0.2,Calm,Calm,-,N/A,Fog,Fog,0,2012-10-05 02:55:00
11:15 PM,59.0,59.0,100,30.08,0.2,Calm,Calm,-,N/A,Fog,Fog,0,2012-10-05 03:15:00
11:35 PM,57.2,57.2,100,30.07,0.2,Calm,Calm,-,N/A,Fog,Fog,0,2012-10-05 03:35:00
11:55 PM,57.2,57.2,100,30.07,0.2,Calm,Calm,-,N/A,Fog,Fog,0,2012-10-05 03:55:00